Other Public Products
Issued by NWS Charleston, SC

Current Version | Previous Version | Text Only | Print | Product List | Glossary Off
Versions: 1 2 3 4 5 6 7 8 9 10 11 12 13 14 15 16 17 18 19 20 21 22 23 24 25 26 27 28 29 30 31 32 33 34 35 36 37 38 39 40 41 42 43 44 45 46 47 48 49 50

000
FPUS82 KCHS 230727
OPUCHS

TEST...KCHS/KSAV Gateway Observations...TEST
National Weather Service Charleston SC
300 AM EDT MON OCT 23 2017

NOTE: "fair" indicates few or no clouds below 12,000 feet with no
significant weather and/or obstructions to visibility.

SCZ050-WAZ558-NCZ071-TXZ119-213-PAZ071-DCZ001-FLZ074-172-MI076-
NYZ176-178-MAZ016-IL014-TNZ027-NJZ106-GAZ044-MD014-230800-

...Gateway Observations for Charleston International...

CITY           SKY/WX    TMP DP  RH WIND       PRES   REMARKS
Chas Airport   HVY RAIN  72  71  97 S12       30.13F FOG
Seattle        CLEAR     51  48  89 SE5       30.47R
Charlotte      CLOUDY    69  62  78 SE8       30.18F
Dallas DFW     CLEAR     53  43  68 S6        30.12F
Dallas Love    PTCLDY    57  46  66 CALM      30.14F
Philladelphia  FOG       61  59  93 NE3       30.32S VSB 1
Wash National  PTCLDY    60  59  96 NE7       30.28F
Baltimore      CLOUDY    56  56 100 CALM      30.28F
Miami          MOCLDY    82  76  81 E10       30.05F
Detroit        CLOUDY    63  52  67 S7        30.00F
Newark         MOCLDY    62  61  96 CALM      30.33F
Laguardia      MOCLDY    62  59  90 SE5       30.32F
J F K          MOCLDY    56  56 100 E3        30.34F
Boston Logan   CLOUDY    56  54  93 NE3       30.39F FOG
Ft. Lauderdale PTCLDY    81  76  84 SE16      30.04F
Chicago O`Hare LGT RAIN  52  50  93 N8        29.97F
Chicago Midway LGT RAIN  53  52  96 N12       29.96F
Houston Bush   CLEAR     60  51  72 N3        30.14S
Houston Hobby  CLEAR     61  52  72 N9        30.13S
Nashville      CLOUDY    71  63  75 S16       29.88F
Atlanta        LGT RAIN  68  68 100 SE7G18    30.05F FOG

$$

GAZ044-118-TXZ119-213-NCZ071-DCZ001-MDZ014-506-PAZ021-071-NJZ106-
NYZ176-178-MAZ106-OHZ011-021-055-MIZ076-KYZ091-ILZ014-INZ047-
MNZ060-ONZ431-230800-

...Gateway Observations for Savannah International...

CITY           SKY/WX    TMP DP  RH WIND       PRES   REMARKS
Savannah Arpt  MOCLDY    73  71  93 SE8       30.10F
Atlanta        LGT RAIN  68  68 100 SE7G18    30.05F FOG
Charlotte      CLOUDY    69  62  78 SE8       30.18F
Dallas DFW     CLEAR     53  43  68 S6        30.12F
Houston Bush   CLEAR     60  51  72 N3        30.14S
Wash National  PTCLDY    60  59  96 NE7       30.28F
Wash Dulles    MOCLDY    53  53 100 CALM      30.27F
Baltimore      CLOUDY    56  56 100 CALM      30.28F
Philadelphia   FOG       61  59  93 NE3       30.32S VSB 1
Newark         MOCLDY    62  61  96 CALM      30.33F
Laguardia      MOCLDY    62  59  90 SE5       30.32F
J F K          MOCLDY    56  56 100 E3        30.34F
Boston         CLOUDY    56  54  93 NE3       30.39F FOG
Pittsburg      MOCLDY    61  50  67 SE7       30.13F
Akron          MOCLDY    62  49  62 S9        30.09F
Cleveland      CLOUDY    64  50  60 S9        30.07S
Cincinnati     CLOUDY    65  53  65 SE13      29.97F
Columbus       CLOUDY    62  51  68 SE7       30.03F
Detroit        CLOUDY    63  52  67 S7        30.00F
Chicago O`Hare LGT RAIN  52  50  93 N8        29.97F
Minneapolis    CLOUDY    56  35  45 S7        29.85S
Indianapolis   CLOUDY    66  56  70 SE8       29.92F
Toronto Canada MOCLDY    61  54  77 SE5       30.07S

$$




USA.gov is the U.S. government's official web portal to all federal, state and local government web resources and services.